Time,TemperatureF,DewpointF,PressureIn,WindDirection,WindDirectionDegrees,WindSpeedMPH,WindSpeedGustMPH,Humidity,HourlyPrecipIn,Conditions,Clouds,dailyrainin,SoftwareType,DateUTC
2013-03-25 00:02:00,40.8,32.1,29.68,WNW,292,4.9,10.4,71,0.00,,,0.77,WUHU21623XXSP,2013-03-25 04:02:00,
2013-03-25 00:03:00,40.8,32.1,29.68,West,270,0.0,7.0,71,0.00,,,0.00,WUHU21623XXSP,2013-03-25 04:03:00,
2013-03-25 00:08:00,40.6,31.6,29.68,WNW,292,2.3,8.7,70,0.00,,,0.00,WUHU21623XXSP,2013-03-25 04:08:00,
2013-03-25 00:13:00,40.6,31.6,29.68,WNW,292,2.3,9.8,70,0.00,,,0.00,WUHU21623XXSP,2013-03-25 04:13:00,
2013-03-25 00:18:00,40.3,31.3,29.68,North,0,2.6,9.8,70,0.00,,,0.00,WUHU21623XXSP,2013-03-25 04:18:00,
2013-03-25 00:23:00,40.3,31.3,29.68,West,270,2.6,12.8,70,0.00,,,0.00,WUHU21623XXSP,2013-03-25 04:23:00,
2013-03-25 00:28:00,40.3,31.3,29.68,WNW,292,1.2,12.8,70,0.00,,,0.00,WUHU21623XXSP,2013-03-25 04:28:00,
2013-03-25 00:41:00,40.1,31.1,29.69,West,270,2.9,3.3,70,0.00,,,0.00,WUHU21623XXSP,2013-03-25 04:41:00,
2013-03-25 00:46:00,39.9,30.5,29.69,WNW,292,4.0,5.7,69,0.00,,,0.00,WUHU21623XXSP,2013-03-25 04:46:00,
2013-03-25 00:51:00,39.7,30.4,29.69,WNW,292,6.1,7.0,69,0.00,,,0.00,WUHU21623XXSP,2013-03-25 04:51:00,
2013-03-25 00:56:00,39.7,30.0,29.69,WNW,292,5.6,9.5,68,0.00,,,0.00,WUHU21623XXSP,2013-03-25 04:56:00,
2013-03-25 01:02:00,39.6,29.8,29.69,SSW,202,6.4,9.5,68,0.00,,,0.00,WUHU21623XXSP,2013-03-25 05:02:00,
2013-03-25 01:07:00,39.6,29.8,29.69,SSW,202,6.4,7.4,68,0.00,,,0.00,WUHU21623XXSP,2013-03-25 05:07:00,
2013-03-25 01:12:00,39.4,29.2,29.69,West,270,8.2,15.8,67,0.00,,,0.00,WUHU21623XXSP,2013-03-25 05:12:00,
2013-03-25 01:17:00,39.4,29.2,29.70,ESE,112,2.9,15.8,67,0.00,,,0.00,WUHU21623XXSP,2013-03-25 05:17:00,
2013-03-25 01:22:00,39.4,29.6,29.70,WNW,292,0.0,9.5,68,0.00,,,0.00,WUHU21623XXSP,2013-03-25 05:22:00,
2013-03-25 01:27:00,39.4,29.6,29.70,West,270,0.0,6.8,68,0.00,,,0.00,WUHU21623XXSP,2013-03-25 05:27:00,
2013-03-25 01:32:00,39.4,29.2,29.70,SSW,202,4.0,6.8,67,0.00,,,0.00,WUHU21623XXSP,2013-03-25 05:32:00,
2013-03-25 01:37:00,39.0,29.3,29.70,North,0,2.3,4.6,68,0.00,,,0.00,WUHU21623XXSP,2013-03-25 05:37:00,
2013-03-25 01:42:00,39.0,29.7,29.71,WNW,292,4.7,5.7,69,0.00,,,0.00,WUHU21623XXSP,2013-03-25 05:42:00,
2013-03-25 01:47:00,39.0,29.3,29.71,West,270,0.0,5.7,68,0.00,,,0.00,WUHU21623XXSP,2013-03-25 05:47:00,
2013-03-25 01:52:00,38.8,29.1,29.71,SSW,202,5.8,6.8,68,0.00,,,0.00,WUHU21623XXSP,2013-03-25 05:52:00,
2013-03-25 01:57:00,38.5,28.4,29.71,West,270,3.3,22.5,67,0.00,,,0.00,WUHU21623XXSP,2013-03-25 05:57:00,
2013-03-25 02:02:00,38.7,28.6,29.71,West,270,9.4,22.5,67,0.00,,,0.00,WUHU21623XXSP,2013-03-25 06:02:00,
2013-03-25 02:07:00,38.5,28.4,29.71,SSW,202,10.8,12.5,67,0.00,,,0.00,WUHU21623XXSP,2013-03-25 06:07:00,
2013-03-25 02:12:00,38.5,28.4,29.71,WNW,292,5.2,12.5,67,0.00,,,0.00,WUHU21623XXSP,2013-03-25 06:12:00,
2013-03-25 02:17:00,38.5,28.4,29.71,West,270,0.0,12.5,67,0.00,,,0.00,WUHU21623XXSP,2013-03-25 06:17:00,
2013-03-25 02:22:00,38.5,28.4,29.72,SSW,202,2.6,6.0,67,0.00,,,0.00,WUHU21623XXSP,2013-03-25 06:22:00,
2013-03-25 02:27:00,38.3,27.9,29.72,WNW,292,7.3,8.4,66,0.00,,,0.00,WUHU21623XXSP,2013-03-25 06:27:00,
2013-03-25 02:32:00,38.3,27.9,29.72,WNW,292,4.4,8.4,66,0.00,,,0.00,WUHU21623XXSP,2013-03-25 06:32:00,
2013-03-25 02:37:00,38.1,27.7,29.72,SSW,202,3.3,8.4,66,0.00,,,0.00,WUHU21623XXSP,2013-03-25 06:37:00,
2013-03-25 02:42:00,37.9,27.6,29.72,West,270,5.2,6.0,66,0.00,,,0.00,WUHU21623XXSP,2013-03-25 06:42:00,
2013-03-25 02:47:00,37.9,27.9,29.73,West,270,12.7,14.7,67,0.00,,,0.00,WUHU21623XXSP,2013-03-25 06:47:00,
2013-03-25 02:52:00,37.9,27.6,29.73,West,270,4.9,14.7,66,0.00,,,0.00,WUHU21623XXSP,2013-03-25 06:52:00,
2013-03-25 02:57:00,37.9,27.2,29.73,WNW,292,5.8,14.7,65,0.00,,,0.00,WUHU21623XXSP,2013-03-25 06:57:00,
2013-03-25 03:02:00,37.8,27.4,29.73,West,270,0.0,9.0,66,0.00,,,0.00,WUHU21623XXSP,2013-03-25 07:02:00,
2013-03-25 03:07:00,37.6,27.2,29.73,West,270,2.6,8.7,66,0.00,,,0.00,WUHU21623XXSP,2013-03-25 07:07:00,
2013-03-25 03:12:00,37.4,27.1,29.73,West,270,1.4,9.5,66,0.00,,,0.00,WUHU21623XXSP,2013-03-25 07:12:00,
2013-03-25 03:17:00,37.6,27.2,29.73,WNW,292,4.7,9.5,66,0.00,,,0.00,WUHU21623XXSP,2013-03-25 07:17:00,
2013-03-25 03:22:00,37.4,26.7,29.73,WNW,292,2.1,5.4,65,0.00,,,0.00,WUHU21623XXSP,2013-03-25 07:22:00,
2013-03-25 03:27:00,37.2,26.9,29.73,West,270,1.2,6.0,66,0.00,,,0.00,WUHU21623XXSP,2013-03-25 07:27:00,
2013-03-25 03:32:00,37.2,27.3,29.73,WNW,292,0.0,7.6,67,0.00,,,0.00,WUHU21623XXSP,2013-03-25 07:32:00,
2013-03-25 03:37:00,37.0,26.7,29.73,WNW,292,3.3,9.8,66,0.00,,,0.00,WUHU21623XXSP,2013-03-25 07:37:00,
2013-03-25 03:42:00,36.9,26.2,29.73,WNW,292,3.3,9.8,65,0.00,,,0.00,WUHU21623XXSP,2013-03-25 07:42:00,
2013-03-25 03:47:00,36.7,26.4,29.73,West,270,4.0,4.6,66,0.00,,,0.00,WUHU21623XXSP,2013-03-25 07:47:00,
2013-03-25 03:52:00,36.9,26.9,29.73,South,180,2.1,4.6,67,0.00,,,0.00,WUHU21623XXSP,2013-03-25 07:52:00,
2013-03-25 03:57:00,36.7,27.1,29.73,WNW,292,4.9,5.7,68,0.00,,,0.00,WUHU21623XXSP,2013-03-25 07:57:00,
2013-03-25 04:02:00,36.7,27.5,29.73,SSW,202,7.5,8.7,69,0.00,,,0.00,WUHU21623XXSP,2013-03-25 08:02:00,
2013-03-25 04:07:00,36.3,27.1,29.73,South,180,4.0,9.0,69,0.00,,,0.00,WUHU21623XXSP,2013-03-25 08:07:00,
2013-03-25 04:12:00,36.3,27.1,29.73,ESE,112,6.6,17.8,69,0.00,,,0.00,WUHU21623XXSP,2013-03-25 08:12:00,
2013-03-25 04:17:00,36.1,26.9,29.73,WNW,292,3.8,17.8,69,0.00,,,0.00,WUHU21623XXSP,2013-03-25 08:17:00,
2013-03-25 04:22:00,36.0,27.1,29.74,SSW,202,18.3,21.2,70,0.00,,,0.00,WUHU21623XXSP,2013-03-25 08:22:00,
2013-03-25 04:27:00,35.4,27.2,29.73,West,270,4.7,21.2,72,0.00,,,0.00,WUHU21623XXSP,2013-03-25 08:27:00,
2013-03-25 04:32:00,35.4,27.6,29.73,SSW,202,0.0,21.2,73,0.00,,,0.00,WUHU21623XXSP,2013-03-25 08:32:00,
2013-03-25 04:37:00,35.4,26.9,29.73,WNW,292,2.3,5.4,71,0.00,,,0.00,WUHU21623XXSP,2013-03-25 08:37:00,
2013-03-25 04:42:00,35.4,26.9,29.74,WNW,292,2.6,4.6,71,0.00,,,0.00,WUHU21623XXSP,2013-03-25 08:42:00,
2013-03-25 04:48:00,35.4,26.6,29.73,West,270,1.7,3.0,70,0.00,,,0.00,WUHU21623XXSP,2013-03-25 08:48:00,
2013-03-25 04:53:00,35.8,27.0,29.73,West,270,6.6,7.6,70,0.00,,,0.00,WUHU21623XXSP,2013-03-25 08:53:00,
2013-03-25 04:58:00,35.6,26.8,29.73,West,270,0.0,7.6,70,0.00,,,0.00,WUHU21623XXSP,2013-03-25 08:58:00,
2013-03-25 05:03:00,35.8,27.0,29.73,West,270,0.0,7.6,70,0.00,,,0.00,WUHU21623XXSP,2013-03-25 09:03:00,
2013-03-25 05:08:00,35.4,26.2,29.74,West,270,6.4,7.4,69,0.00,,,0.00,WUHU21623XXSP,2013-03-25 09:08:00,
2013-03-25 05:13:00,35.4,26.2,29.74,SSW,202,6.1,7.4,69,0.00,,,0.00,WUHU21623XXSP,2013-03-25 09:13:00,
2013-03-25 05:18:00,35.4,26.2,29.74,SSW,202,9.0,10.4,69,0.00,,,0.00,WUHU21623XXSP,2013-03-25 09:18:00,
2013-03-25 05:23:00,35.2,26.1,29.74,WNW,292,4.7,10.4,69,0.00,,,0.00,WUHU21623XXSP,2013-03-25 09:23:00,
2013-03-25 05:28:00,35.2,26.4,29.74,South,180,2.1,10.4,70,0.00,,,0.00,WUHU21623XXSP,2013-03-25 09:28:00,
2013-03-25 05:33:00,35.2,26.1,29.74,SSW,202,4.9,9.0,69,0.00,,,0.00,WUHU21623XXSP,2013-03-25 09:33:00,
2013-03-25 05:38:00,35.2,26.4,29.74,SSW,202,12.7,14.7,70,0.00,,,0.00,WUHU21623XXSP,2013-03-25 09:38:00,
2013-03-25 05:43:00,35.2,26.1,29.74,West,270,0.0,14.7,69,0.00,,,0.00,WUHU21623XXSP,2013-03-25 09:43:00,
2013-03-25 05:48:00,35.4,26.9,29.74,SSW,202,2.6,14.7,71,0.00,,,0.00,WUHU21623XXSP,2013-03-25 09:48:00,
2013-03-25 05:53:00,35.2,26.7,29.75,West,270,0.0,7.4,71,0.00,,,0.00,WUHU21623XXSP,2013-03-25 09:53:00,
2013-03-25 05:58:00,35.2,26.7,29.75,West,270,2.1,3.3,71,0.00,,,0.00,WUHU21623XXSP,2013-03-25 09:58:00,
2013-03-25 06:03:00,35.1,26.9,29.75,SSW,202,0.0,9.8,72,0.00,,,0.00,WUHU21623XXSP,2013-03-25 10:03:00,
2013-03-25 06:08:00,35.1,26.9,29.75,West,270,3.8,9.8,72,0.00,,,0.00,WUHU21623XXSP,2013-03-25 10:08:00,
2013-03-25 06:13:00,34.9,26.4,29.75,SSW,202,4.7,6.8,71,0.00,,,0.00,WUHU21623XXSP,2013-03-25 10:13:00,
2013-03-25 06:18:00,34.9,26.4,29.75,WNW,292,2.9,6.8,71,0.00,,,0.00,WUHU21623XXSP,2013-03-25 10:18:00,
2013-03-25 06:23:00,34.9,26.7,29.75,West,270,4.4,5.4,72,0.00,,,0.00,WUHU21623XXSP,2013-03-25 10:23:00,
2013-03-25 06:28:00,34.9,26.7,29.75,West,270,4.7,12.8,72,0.00,,,0.00,WUHU21623XXSP,2013-03-25 10:28:00,
2013-03-25 06:33:00,34.9,26.7,29.76,SSW,202,2.6,12.8,72,0.00,,,0.00,WUHU21623XXSP,2013-03-25 10:33:00,
2013-03-25 06:38:00,34.9,26.4,29.75,SSW,202,7.5,8.7,71,0.00,,,0.00,WUHU21623XXSP,2013-03-25 10:38:00,
2013-03-25 06:43:00,34.7,26.5,29.76,WNW,292,3.8,9.0,72,0.00,,,0.00,WUHU21623XXSP,2013-03-25 10:43:00,
2013-03-25 06:48:00,34.7,26.5,29.76,East,90,0.0,9.0,72,0.00,,,0.00,WUHU21623XXSP,2013-03-25 10:48:00,
2013-03-25 06:53:00,34.7,26.5,29.76,SSW,202,3.8,9.8,72,0.00,,,0.00,WUHU21623XXSP,2013-03-25 10:53:00,
2013-03-25 06:58:00,34.7,26.5,29.76,SSW,202,0.0,9.8,72,0.00,,,0.00,WUHU21623XXSP,2013-03-25 10:58:00,
2013-03-25 07:03:00,34.7,26.5,29.76,WNW,292,0.0,4.4,72,0.00,,,0.00,WUHU21623XXSP,2013-03-25 11:03:00,
2013-03-25 07:08:00,34.7,26.5,29.76,WNW,292,3.8,4.4,72,0.00,,,0.00,WUHU21623XXSP,2013-03-25 11:08:00,
2013-03-25 07:13:00,34.9,26.4,29.77,WNW,292,0.0,4.4,71,0.00,,,0.00,WUHU21623XXSP,2013-03-25 11:13:00,
2013-03-25 07:18:00,34.5,26.0,29.77,West,270,0.0,4.4,71,0.00,,,0.00,WUHU21623XXSP,2013-03-25 11:18:00,
2013-03-25 07:23:00,34.7,26.5,29.77,NNE,22,0.0,3.0,72,0.00,,,0.00,WUHU21623XXSP,2013-03-25 11:23:00,
2013-03-25 07:28:00,34.9,26.7,29.77,SSW,202,8.7,10.0,72,0.00,,,0.00,WUHU21623XXSP,2013-03-25 11:28:00,
2013-03-25 07:33:00,34.9,26.7,29.78,North,0,0.0,10.0,72,0.00,,,0.00,WUHU21623XXSP,2013-03-25 11:33:00,
2013-03-25 07:38:00,34.9,26.4,29.78,West,270,3.5,10.0,71,0.00,,,0.00,WUHU21623XXSP,2013-03-25 11:38:00,
2013-03-25 07:43:00,34.7,26.5,29.78,WNW,292,4.4,7.6,72,0.00,,,0.00,WUHU21623XXSP,2013-03-25 11:43:00,
2013-03-25 07:48:00,34.9,26.4,29.77,South,180,0.0,5.1,71,0.00,,,0.00,WUHU21623XXSP,2013-03-25 11:48:00,
2013-03-25 07:53:00,34.7,26.2,29.77,North,0,0.0,7.0,71,0.00,,,0.00,WUHU21623XXSP,2013-03-25 11:53:00,
2013-03-25 07:58:00,34.9,26.4,29.78,South,180,4.0,7.0,71,0.00,,,0.00,WUHU21623XXSP,2013-03-25 11:58:00,
2013-03-25 08:03:00,34.7,26.5,29.78,West,270,5.2,6.0,72,0.00,,,0.00,WUHU21623XXSP,2013-03-25 12:03:00,
2013-03-25 08:08:00,34.7,26.5,29.77,West,270,8.7,10.0,72,0.00,,,0.00,WUHU21623XXSP,2013-03-25 12:08:00,
2013-03-25 08:13:00,34.5,26.0,29.78,West,270,5.2,10.0,71,0.00,,,0.00,WUHU21623XXSP,2013-03-25 12:13:00,
2013-03-25 08:18:00,34.5,26.0,29.78,WNW,292,0.0,10.0,71,0.00,,,0.00,WUHU21623XXSP,2013-03-25 12:18:00,
2013-03-25 08:23:00,34.3,26.2,29.78,North,0,3.8,6.0,72,0.00,,,0.00,WUHU21623XXSP,2013-03-25 12:23:00,
2013-03-25 08:28:00,34.3,26.2,29.78,West,270,4.4,6.0,72,0.00,,,0.00,WUHU21623XXSP,2013-03-25 12:28:00,
2013-03-25 08:33:00,34.5,26.0,29.78,West,270,0.9,6.0,71,0.00,,,0.00,WUHU21623XXSP,2013-03-25 12:33:00,
2013-03-25 08:38:00,34.7,26.2,29.78,SSW,202,6.1,7.0,71,0.00,,,0.00,WUHU21623XXSP,2013-03-25 12:38:00,
2013-03-25 08:43:00,34.9,26.1,29.78,North,0,0.0,7.0,70,0.00,,,0.00,WUHU21623XXSP,2013-03-25 12:43:00,
2013-03-25 08:48:00,34.9,26.4,29.79,WNW,292,0.0,7.0,71,0.00,,,0.00,WUHU21623XXSP,2013-03-25 12:48:00,
2013-03-25 08:53:00,34.9,26.4,29.79,West,270,3.3,7.6,71,0.00,,,0.00,WUHU21623XXSP,2013-03-25 12:53:00,
2013-03-25 08:58:00,34.7,26.5,29.80,WNW,292,0.0,10.4,72,0.00,,,0.00,WUHU21623XXSP,2013-03-25 12:58:00,
2013-03-25 09:03:00,34.9,27.0,29.80,West,270,1.4,10.4,73,0.00,,,0.00,WUHU21623XXSP,2013-03-25 13:03:00,
2013-03-25 09:08:00,34.9,27.0,29.80,SSW,202,1.7,8.7,73,0.00,,,0.00,WUHU21623XXSP,2013-03-25 13:08:00,
2013-03-25 09:13:00,34.9,27.0,29.80,SSW,202,7.5,8.7,73,0.00,,,0.00,WUHU21623XXSP,2013-03-25 13:13:00,
2013-03-25 09:19:00,34.3,26.5,29.81,West,270,0.0,8.7,73,0.00,,,0.00,WUHU21623XXSP,2013-03-25 13:19:00,
2013-03-25 09:24:00,34.3,26.5,29.81,West,270,4.7,5.4,73,0.00,,,0.00,WUHU21623XXSP,2013-03-25 13:24:00,
2013-03-25 09:29:00,34.3,26.5,29.81,WNW,292,3.5,5.4,73,0.00,,,0.00,WUHU21623XXSP,2013-03-25 13:29:00,
2013-03-25 09:34:00,34.3,26.5,29.81,West,270,2.1,5.4,73,0.00,,,0.00,WUHU21623XXSP,2013-03-25 13:34:00,
2013-03-25 09:39:00,34.3,26.5,29.82,West,270,11.1,12.8,73,0.00,,,0.00,WUHU21623XXSP,2013-03-25 13:39:00,
2013-03-25 09:44:00,34.3,26.5,29.82,WNW,292,0.0,12.8,73,0.00,,,0.00,WUHU21623XXSP,2013-03-25 13:44:00,
2013-03-25 09:49:00,34.5,26.7,29.81,West,270,5.2,12.8,73,0.00,,,0.00,WUHU21623XXSP,2013-03-25 13:49:00,
2013-03-25 09:54:00,34.7,26.9,29.82,WNW,292,0.0,6.8,73,0.00,,,0.00,WUHU21623XXSP,2013-03-25 13:54:00,
2013-03-25 09:58:00,34.9,26.7,29.82,South,180,5.6,8.1,72,0.00,,,0.00,WUHU21623XXSP,2013-03-25 13:58:00,
2013-03-25 10:03:00,35.1,26.6,29.82,West,270,5.2,9.8,71,0.00,,,0.00,WUHU21623XXSP,2013-03-25 14:03:00,
2013-03-25 10:08:00,35.2,26.4,29.83,WNW,292,7.5,9.8,70,0.00,,,0.00,WUHU21623XXSP,2013-03-25 14:08:00,
2013-03-25 10:13:00,35.4,26.6,29.83,West,270,0.0,9.8,70,0.00,,,0.00,WUHU21623XXSP,2013-03-25 14:13:00,
2013-03-25 10:19:00,35.4,26.2,29.83,WNW,292,0.0,9.8,69,0.00,,,0.00,WUHU21623XXSP,2013-03-25 14:19:00,
2013-03-25 10:24:00,35.8,26.2,29.83,WNW,292,4.9,5.7,68,0.00,,,0.00,WUHU21623XXSP,2013-03-25 14:24:00,
2013-03-25 10:29:00,36.0,26.0,29.84,North,0,4.7,5.7,67,0.00,,,0.00,WUHU21623XXSP,2013-03-25 14:29:00,
2013-03-25 10:34:00,36.1,25.5,29.84,West,270,2.6,5.7,65,0.00,,,0.00,WUHU21623XXSP,2013-03-25 14:34:00,
2013-03-25 10:39:00,36.3,26.0,29.84,WNW,292,2.6,3.3,66,0.00,,,0.00,WUHU21623XXSP,2013-03-25 14:39:00,
2013-03-25 10:44:00,36.1,25.5,29.84,North,0,6.6,18.2,65,0.00,,,0.00,WUHU21623XXSP,2013-03-25 14:44:00,
2013-03-25 10:49:00,36.1,25.8,29.85,West,270,0.0,18.2,66,0.00,,,0.00,WUHU21623XXSP,2013-03-25 14:49:00,
2013-03-25 10:54:00,36.0,26.4,29.85,West,270,2.6,45.3,68,0.00,,,0.00,WUHU21623XXSP,2013-03-25 14:54:00,
2013-03-25 10:59:00,36.0,27.1,29.85,West,270,9.6,45.3,70,0.00,,,0.00,WUHU21623XXSP,2013-03-25 14:59:00,
2013-03-25 11:04:00,35.8,27.0,29.85,North,0,2.1,11.1,70,0.00,,,0.00,WUHU21623XXSP,2013-03-25 15:04:00,
2013-03-25 11:09:00,35.8,27.0,29.86,North,0,3.8,11.1,70,0.00,,,0.00,WUHU21623XXSP,2013-03-25 15:09:00,
2013-03-25 11:14:00,35.4,26.9,29.86,West,270,0.0,4.4,71,0.00,,,0.00,WUHU21623XXSP,2013-03-25 15:14:00,
2013-03-25 11:19:00,35.8,27.3,29.86,West,270,0.0,5.4,71,0.00,,,0.00,WUHU21623XXSP,2013-03-25 15:19:00,
2013-03-25 11:24:00,36.3,27.8,29.86,WNW,292,0.0,5.4,71,0.00,,,0.00,WUHU21623XXSP,2013-03-25 15:24:00,
2013-03-25 11:29:00,36.5,28.0,29.87,West,270,0.0,18.2,71,0.00,,,0.00,WUHU21623XXSP,2013-03-25 15:29:00,
2013-03-25 11:34:00,36.9,28.0,29.86,West,270,10.1,18.2,70,0.00,,,0.00,WUHU21623XXSP,2013-03-25 15:34:00,
2013-03-25 11:39:00,37.0,28.2,29.87,West,270,7.5,11.7,70,0.00,,,0.00,WUHU21623XXSP,2013-03-25 15:39:00,
2013-03-25 11:44:00,36.9,27.7,29.87,South,180,2.6,11.7,69,0.00,,,0.00,WUHU21623XXSP,2013-03-25 15:44:00,
2013-03-25 11:49:00,36.5,27.7,29.87,SSW,202,8.2,11.1,70,0.00,,,0.00,WUHU21623XXSP,2013-03-25 15:49:00,
2013-03-25 11:54:00,36.3,27.8,29.88,SSW,202,4.9,11.1,71,0.00,,,0.00,WUHU21623XXSP,2013-03-25 15:54:00,
2013-03-25 11:59:00,36.3,28.1,29.87,West,270,2.1,9.5,72,0.00,,,0.00,WUHU21623XXSP,2013-03-25 15:59:00,
2013-03-25 12:04:00,36.3,28.1,29.87,South,180,1.2,6.0,72,0.00,,,0.00,WUHU21623XXSP,2013-03-25 16:04:00,
2013-03-25 12:09:00,36.3,28.1,29.87,West,270,4.7,7.6,72,0.00,,,0.00,WUHU21623XXSP,2013-03-25 16:09:00,
2013-03-25 12:14:00,36.3,27.8,29.88,West,270,2.6,7.6,71,0.00,,,0.00,WUHU21623XXSP,2013-03-25 16:14:00,
2013-03-25 12:19:00,36.3,27.8,29.88,North,0,5.8,6.8,71,0.00,,,0.00,WUHU21623XXSP,2013-03-25 16:19:00,
2013-03-25 12:24:00,36.5,28.3,29.88,North,0,0.0,6.8,72,0.00,,,0.00,WUHU21623XXSP,2013-03-25 16:24:00,
2013-03-25 12:29:00,36.9,28.0,29.88,WNW,292,4.0,6.8,70,0.00,,,0.00,WUHU21623XXSP,2013-03-25 16:29:00,
2013-03-25 12:34:00,36.7,27.9,29.89,WNW,292,1.4,5.4,70,0.00,,,0.00,WUHU21623XXSP,2013-03-25 16:34:00,
2013-03-25 12:39:00,36.5,27.7,29.89,West,270,3.5,4.6,70,0.00,,,0.00,WUHU21623XXSP,2013-03-25 16:39:00,
2013-03-25 12:44:00,36.3,27.5,29.89,West,270,8.2,9.5,70,0.00,,,0.00,WUHU21623XXSP,2013-03-25 16:44:00,
2013-03-25 12:49:00,36.3,27.1,29.89,WNW,292,6.1,9.5,69,0.00,,,0.00,WUHU21623XXSP,2013-03-25 16:49:00,
2013-03-25 12:54:00,36.5,27.7,29.89,West,270,0.0,9.5,70,0.00,,,0.00,WUHU21623XXSP,2013-03-25 16:54:00,
2013-03-25 12:59:00,36.7,27.1,29.89,WNW,292,6.6,7.6,68,0.00,,,0.00,WUHU21623XXSP,2013-03-25 16:59:00,
2013-03-25 13:04:00,36.7,26.7,29.89,West,270,0.0,7.6,67,0.00,,,0.00,WUHU21623XXSP,2013-03-25 17:04:00,
2013-03-25 13:09:00,36.7,27.1,29.89,West,270,6.6,7.6,68,0.00,,,0.00,WUHU21623XXSP,2013-03-25 17:09:00,
2013-03-25 13:14:00,36.9,27.3,29.89,WNW,292,4.7,7.6,68,0.00,,,0.00,WUHU21623XXSP,2013-03-25 17:14:00,
2013-03-25 13:19:00,36.7,27.1,29.89,West,270,4.4,7.6,68,0.00,,,0.00,WUHU21623XXSP,2013-03-25 17:19:00,
2013-03-25 13:24:00,37.0,27.5,29.89,North,0,5.2,6.5,68,0.00,,,0.00,WUHU21623XXSP,2013-03-25 17:24:00,
2013-03-25 13:29:00,36.9,27.3,29.89,SSW,202,0.9,6.0,68,0.00,,,0.00,WUHU21623XXSP,2013-03-25 17:29:00,
2013-03-25 13:34:00,37.0,27.8,29.89,WNW,292,2.3,6.0,69,0.00,,,0.00,WUHU21623XXSP,2013-03-25 17:34:00,
2013-03-25 13:39:00,37.8,28.1,29.89,West,270,5.6,8.7,68,0.00,,,0.00,WUHU21623XXSP,2013-03-25 17:39:00,
2013-03-25 13:44:00,38.1,28.1,29.89,WNW,292,6.4,8.7,67,0.00,,,0.00,WUHU21623XXSP,2013-03-25 17:44:00,
2013-03-25 13:49:00,38.5,28.0,29.89,SSW,202,11.1,12.8,66,0.00,,,0.00,WUHU21623XXSP,2013-03-25 17:49:00,
2013-03-25 13:54:00,39.2,29.1,29.89,WNW,292,3.8,12.8,67,0.00,,,0.00,WUHU21623XXSP,2013-03-25 17:54:00,
2013-03-25 13:59:00,40.5,29.6,29.89,WNW,292,4.7,12.8,65,0.00,,,0.00,WUHU21623XXSP,2013-03-25 17:59:00,
2013-03-25 14:04:00,40.6,29.8,29.89,West,270,8.4,9.8,65,0.00,,,0.00,WUHU21623XXSP,2013-03-25 18:04:00,
2013-03-25 14:09:00,40.8,29.9,29.89,West,270,2.3,9.8,65,0.00,,,0.00,WUHU21623XXSP,2013-03-25 18:09:00,
2013-03-25 14:14:00,40.1,29.2,29.89,WNW,292,1.4,8.1,65,0.00,,,0.00,WUHU21623XXSP,2013-03-25 18:14:00,
2013-03-25 14:19:00,39.4,28.5,29.89,WNW,292,0.0,8.1,65,0.00,,,0.00,WUHU21623XXSP,2013-03-25 18:19:00,
2013-03-25 14:24:00,38.3,27.1,29.89,WNW,292,6.1,11.7,64,0.00,,,0.00,WUHU21623XXSP,2013-03-25 18:24:00,
2013-03-25 14:29:00,38.1,27.0,29.89,North,0,3.5,11.7,64,0.00,,,0.00,WUHU21623XXSP,2013-03-25 18:29:00,
2013-03-25 14:34:00,37.8,27.0,29.90,West,270,10.1,11.7,65,0.00,,,0.00,WUHU21623XXSP,2013-03-25 18:34:00,
2013-03-25 14:39:00,37.2,26.9,29.89,West,270,3.8,11.7,66,0.00,,,0.00,WUHU21623XXSP,2013-03-25 18:39:00,
2013-03-25 14:44:00,37.2,27.6,29.89,West,270,1.7,6.8,68,0.00,,,0.00,WUHU21623XXSP,2013-03-25 18:44:00,
2013-03-25 14:49:00,37.8,28.1,29.89,WNW,292,9.4,10.8,68,0.00,,,0.00,WUHU21623XXSP,2013-03-25 18:49:00,
2013-03-25 14:54:00,38.5,28.0,29.89,WNW,292,0.0,10.8,66,0.00,,,0.00,WUHU21623XXSP,2013-03-25 18:54:00,
2013-03-25 14:59:00,38.1,27.7,29.90,West,270,0.0,9.8,66,0.00,,,0.00,WUHU21623XXSP,2013-03-25 18:59:00,
2013-03-25 15:04:00,37.6,28.0,29.90,West,270,2.3,9.8,68,0.00,,,0.00,WUHU21623XXSP,2013-03-25 19:04:00,
2013-03-25 15:09:00,37.2,28.0,29.90,WNW,292,6.6,7.6,69,0.00,,,0.00,WUHU21623XXSP,2013-03-25 19:09:00,
2013-03-25 15:14:00,37.0,27.8,29.91,WNW,292,10.8,12.5,69,0.00,,,0.00,WUHU21623XXSP,2013-03-25 19:14:00,
2013-03-25 15:20:00,37.0,28.0,29.91,West,270,3.5,12.5,68,0.00,,,0.00,WUHU21623XXSP,2013-03-25 19:20:00,
2013-03-25 15:25:00,37.0,27.5,29.91,WNW,292,2.9,12.5,68,0.00,,,0.00,WUHU21623XXSP,2013-03-25 19:25:00,
2013-03-25 15:29:00,37.2,27.6,29.91,WNW,292,6.4,7.4,68,0.00,,,0.00,WUHU21623XXSP,2013-03-25 19:29:00,
2013-03-25 15:34:00,37.8,28.1,29.91,West,270,8.2,9.5,68,0.00,,,0.00,WUHU21623XXSP,2013-03-25 19:34:00,
2013-03-25 15:39:00,37.9,27.9,29.91,WNW,292,2.1,9.5,67,0.00,,,0.00,WUHU21623XXSP,2013-03-25 19:39:00,
2013-03-25 15:44:00,37.9,27.6,29.92,WNW,292,0.0,3.0,66,0.00,,,0.00,WUHU21623XXSP,2013-03-25 19:44:00,
2013-03-25 15:49:00,37.9,27.6,29.91,West,270,5.6,6.5,66,0.00,,,0.00,WUHU21623XXSP,2013-03-25 19:49:00,
2013-03-25 15:54:00,37.6,26.9,29.91,NNE,22,2.6,7.6,65,0.00,,,0.00,WUHU21623XXSP,2013-03-25 19:54:00,
2013-03-25 15:59:00,37.4,26.3,29.92,WNW,292,6.6,7.6,64,0.00,,,0.00,WUHU21623XXSP,2013-03-25 19:59:00,
2013-03-25 16:04:00,37.8,27.0,29.92,WNW,292,7.0,8.1,65,0.00,,,0.00,WUHU21623XXSP,2013-03-25 20:04:00,
2013-03-25 16:09:00,37.9,26.8,29.92,WNW,292,2.9,8.1,64,0.00,,,0.00,WUHU21623XXSP,2013-03-25 20:09:00,
2013-03-25 16:18:00,38.1,26.6,29.93,West,270,7.8,9.5,63,0.00,,,0.00,WUHU21623XXSP,2013-03-25 20:18:00,
2013-03-25 16:23:00,37.9,26.8,29.93,North,0,4.0,9.5,64,0.00,,,0.00,WUHU21623XXSP,2013-03-25 20:23:00,
2013-03-25 16:28:00,37.8,27.0,29.93,SSW,202,4.9,9.0,65,0.00,,,0.00,WUHU21623XXSP,2013-03-25 20:28:00,
2013-03-25 16:33:00,37.4,26.7,29.93,WNW,292,4.9,5.7,65,0.00,,,0.00,WUHU21623XXSP,2013-03-25 20:33:00,
2013-03-25 16:38:00,37.2,26.9,29.93,WNW,292,3.5,5.7,66,0.00,,,0.00,WUHU21623XXSP,2013-03-25 20:38:00,
2013-03-25 16:43:00,37.2,26.9,29.94,WNW,292,4.9,5.7,66,0.00,,,0.00,WUHU21623XXSP,2013-03-25 20:43:00,
2013-03-25 16:48:00,37.0,26.7,29.94,WNW,292,2.9,6.5,66,0.00,,,0.00,WUHU21623XXSP,2013-03-25 20:48:00,
2013-03-25 16:53:00,37.2,26.9,29.94,SSW,202,4.4,6.5,66,0.00,,,0.00,WUHU21623XXSP,2013-03-25 20:53:00,
2013-03-25 16:58:00,37.2,27.3,29.94,West,270,4.7,5.4,67,0.00,,,0.00,WUHU21623XXSP,2013-03-25 20:58:00,
2013-03-25 17:03:00,36.7,26.4,29.94,West,270,0.0,5.7,66,0.00,,,0.00,WUHU21623XXSP,2013-03-25 21:03:00,
2013-03-25 17:09:00,36.7,26.7,29.94,West,270,7.5,8.7,67,0.00,,,0.00,WUHU21623XXSP,2013-03-25 21:09:00,
2013-03-25 17:14:00,36.3,26.8,29.95,West,270,3.8,11.7,68,0.00,,,0.00,WUHU21623XXSP,2013-03-25 21:14:00,
2013-03-25 17:19:00,36.3,26.8,29.95,WNW,292,0.0,11.7,68,0.00,,,0.00,WUHU21623XXSP,2013-03-25 21:19:00,
2013-03-25 17:24:00,36.5,26.9,29.95,WNW,292,3.5,8.4,68,0.00,,,0.00,WUHU21623XXSP,2013-03-25 21:24:00,
2013-03-25 17:29:00,36.5,26.9,29.96,WNW,292,1.2,8.7,68,0.00,,,0.00,WUHU21623XXSP,2013-03-25 21:29:00,
2013-03-25 17:34:00,36.5,26.9,29.96,NNE,22,0.0,14.4,68,0.00,,,0.00,WUHU21623XXSP,2013-03-25 21:34:00,
2013-03-25 17:39:00,36.1,27.3,29.96,West,270,7.8,14.4,70,0.00,,,0.00,WUHU21623XXSP,2013-03-25 21:39:00,
2013-03-25 17:44:00,36.0,27.5,29.96,SSW,202,8.7,10.0,71,0.00,,,0.00,WUHU21623XXSP,2013-03-25 21:44:00,
2013-03-25 17:49:00,35.8,27.6,29.96,WNW,292,3.8,10.0,72,0.00,,,0.00,WUHU21623XXSP,2013-03-25 21:49:00,
2013-03-25 17:54:00,35.4,27.2,29.96,WNW,292,2.6,10.0,72,0.00,,,0.00,WUHU21623XXSP,2013-03-25 21:54:00,
2013-03-25 17:59:00,35.8,27.4,29.96,West,270,2.3,4.4,72,0.00,,,0.00,WUHU21623XXSP,2013-03-25 21:59:00,
2013-03-25 18:04:00,35.4,27.6,29.97,West,270,3.8,4.4,73,0.00,,,0.00,WUHU21623XXSP,2013-03-25 22:04:00,
2013-03-25 18:09:00,35.8,27.6,29.97,West,270,4.4,10.0,72,0.00,,,0.00,WUHU21623XXSP,2013-03-25 22:09:00,
2013-03-25 18:14:00,35.4,27.6,29.97,West,270,10.1,11.7,73,0.00,,,0.00,WUHU21623XXSP,2013-03-25 22:14:00,
2013-03-25 18:19:00,35.8,27.6,29.97,SSW,202,3.8,11.7,72,0.00,,,0.00,WUHU21623XXSP,2013-03-25 22:19:00,
2013-03-25 18:24:00,35.8,27.6,29.98,West,270,0.0,11.7,72,0.00,,,0.00,WUHU21623XXSP,2013-03-25 22:24:00,
2013-03-25 18:29:00,35.8,27.6,29.98,WNW,292,1.2,4.4,72,0.00,,,0.00,WUHU21623XXSP,2013-03-25 22:29:00,
2013-03-25 18:34:00,35.4,26.9,29.98,WNW,292,0.0,3.8,71,0.00,,,0.00,WUHU21623XXSP,2013-03-25 22:34:00,
2013-03-25 18:39:00,35.4,26.9,29.98,WNW,292,3.5,4.1,71,0.00,,,0.00,WUHU21623XXSP,2013-03-25 22:39:00,
2013-03-25 18:44:00,35.4,26.9,29.98,WNW,292,7.5,8.7,71,0.00,,,0.00,WUHU21623XXSP,2013-03-25 22:44:00,
2013-03-25 18:49:00,35.4,26.9,29.99,North,0,2.6,8.7,71,0.00,,,0.00,WUHU21623XXSP,2013-03-25 22:49:00,
2013-03-25 18:54:00,35.4,26.9,29.99,WNW,292,0.9,11.1,71,0.00,,,0.00,WUHU21623XXSP,2013-03-25 22:54:00,
2013-03-25 18:59:00,35.4,26.9,29.99,WNW,292,6.1,11.1,71,0.00,,,0.00,WUHU21623XXSP,2013-03-25 22:59:00,
2013-03-25 19:04:00,35.2,26.7,29.99,WNW,292,8.7,10.0,71,0.00,,,0.00,WUHU21623XXSP,2013-03-25 23:04:00,
2013-03-25 19:09:00,35.4,26.9,29.99,WNW,292,4.4,10.0,71,0.00,,,0.00,WUHU21623XXSP,2013-03-25 23:09:00,
2013-03-25 19:14:00,35.4,26.2,30.00,WNW,292,0.0,10.0,69,0.00,,,0.00,WUHU21623XXSP,2013-03-25 23:14:00,
2013-03-25 19:19:00,35.4,26.2,30.00,SSW,202,4.0,6.0,69,0.00,,,0.00,WUHU21623XXSP,2013-03-25 23:19:00,
2013-03-25 19:24:00,35.4,26.2,30.00,North,0,4.4,6.8,69,0.00,,,0.00,WUHU21623XXSP,2013-03-25 23:24:00,
2013-03-25 19:29:00,35.2,26.1,30.00,West,270,5.6,6.8,69,0.00,,,0.00,WUHU21623XXSP,2013-03-25 23:29:00,
2013-03-25 19:34:00,35.2,26.1,30.00,WNW,292,2.6,6.5,69,0.00,,,0.00,WUHU21623XXSP,2013-03-25 23:34:00,
2013-03-25 19:39:00,35.2,26.1,30.00,WNW,292,3.8,6.5,69,0.00,,,0.00,WUHU21623XXSP,2013-03-25 23:39:00,
2013-03-25 19:44:00,35.4,26.2,30.00,WNW,292,6.4,7.4,69,0.00,,,0.00,WUHU21623XXSP,2013-03-25 23:44:00,
2013-03-25 19:50:00,35.4,26.2,30.01,WNW,292,1.4,7.4,69,0.00,,,0.00,WUHU21623XXSP,2013-03-25 23:50:00,
2013-03-25 19:55:00,35.4,26.2,30.01,West,270,2.1,7.4,69,0.00,,,0.00,WUHU21623XXSP,2013-03-25 23:55:00,
2013-03-25 20:00:00,35.4,26.2,30.01,North,0,4.4,6.5,69,0.00,,,0.00,WUHU21623XXSP,2013-03-26 00:00:00,
2013-03-25 20:05:00,35.1,25.9,30.01,WNW,292,0.0,5.1,69,0.00,,,0.00,WUHU21623XXSP,2013-03-26 00:05:00,
2013-03-25 20:10:00,34.9,25.7,30.01,WNW,292,4.7,7.0,69,0.00,,,0.00,WUHU21623XXSP,2013-03-26 00:10:00,
2013-03-25 20:15:00,34.7,25.5,30.01,West,270,2.6,7.0,69,0.00,,,0.00,WUHU21623XXSP,2013-03-26 00:15:00,
2013-03-25 20:20:00,34.5,25.7,30.01,South,180,0.0,6.0,70,0.00,,,0.00,WUHU21623XXSP,2013-03-26 00:20:00,
2013-03-25 20:25:00,34.5,26.0,30.02,West,270,7.0,8.1,71,0.00,,,0.00,WUHU21623XXSP,2013-03-26 00:25:00,
2013-03-25 20:30:00,34.5,26.0,30.02,WNW,292,2.6,8.1,71,0.00,,,0.00,WUHU21623XXSP,2013-03-26 00:30:00,
2013-03-25 20:35:00,34.3,26.2,30.02,West,270,2.6,8.1,72,0.00,,,0.00,WUHU21623XXSP,2013-03-26 00:35:00,
2013-03-25 20:40:00,34.3,26.2,30.02,West,270,0.0,7.6,72,0.00,,,0.00,WUHU21623XXSP,2013-03-26 00:40:00,
2013-03-25 20:45:00,34.3,26.2,30.02,West,270,1.2,6.8,73,0.00,,,0.00,WUHU21623XXSP,2013-03-26 00:45:00,
2013-03-25 20:50:00,34.2,26.3,30.03,North,0,0.0,6.8,73,0.00,,,0.00,WUHU21623XXSP,2013-03-26 00:50:00,
2013-03-25 20:55:00,34.2,26.3,30.03,WNW,292,0.0,1.9,73,0.00,,,0.00,WUHU21623XXSP,2013-03-26 00:55:00,
2013-03-25 21:00:00,34.2,26.6,30.03,WNW,292,1.7,4.4,74,0.00,,,0.00,WUHU21623XXSP,2013-03-26 01:00:00,
2013-03-25 21:05:00,34.2,26.6,30.04,WNW,292,0.0,4.4,74,0.00,,,0.00,WUHU21623XXSP,2013-03-26 01:05:00,
2013-03-25 21:10:00,34.2,26.6,30.04,West,270,0.0,4.4,74,0.00,,,0.00,WUHU21623XXSP,2013-03-26 01:10:00,
2013-03-25 21:15:00,34.2,26.6,30.04,West,270,3.5,4.1,74,0.00,,,0.00,WUHU21623XXSP,2013-03-26 01:15:00,
2013-03-25 21:20:00,34.0,26.5,30.04,South,180,0.0,4.1,74,0.00,,,0.00,WUHU21623XXSP,2013-03-26 01:20:00,
2013-03-25 21:25:00,34.0,26.8,30.04,SSW,202,2.3,4.1,75,0.00,,,0.00,WUHU21623XXSP,2013-03-26 01:25:00,
2013-03-25 21:30:00,33.8,26.6,30.04,North,0,0.0,2.7,75,0.00,,,0.00,WUHU21623XXSP,2013-03-26 01:30:00,
2013-03-25 21:35:00,33.8,26.6,30.04,WNW,292,0.0,2.7,75,0.00,,,0.00,WUHU21623XXSP,2013-03-26 01:35:00,
2013-03-25 21:40:00,33.8,26.6,30.05,West,270,2.9,3.3,75,0.00,,,0.00,WUHU21623XXSP,2013-03-26 01:40:00,
2013-03-25 21:45:00,33.6,26.4,30.05,SSW,202,2.1,8.4,75,0.00,,,0.00,WUHU21623XXSP,2013-03-26 01:45:00,
2013-03-25 21:50:00,33.6,26.4,30.05,WNW,292,2.1,8.4,75,0.00,,,0.00,WUHU21623XXSP,2013-03-26 01:50:00,
2013-03-25 21:55:00,33.8,26.6,30.05,West,270,0.0,3.0,75,0.00,,,0.00,WUHU21623XXSP,2013-03-26 01:55:00,
2013-03-25 22:00:00,33.6,26.4,30.05,WNW,292,0.0,3.0,75,0.00,,,0.00,WUHU21623XXSP,2013-03-26 02:00:00,
2013-03-25 22:05:00,33.6,26.4,30.05,WNW,292,4.0,4.6,75,0.00,,,0.00,WUHU21623XXSP,2013-03-26 02:05:00,
2013-03-25 22:10:00,33.8,26.3,30.06,WNW,292,0.0,4.6,74,0.00,,,0.00,WUHU21623XXSP,2013-03-26 02:10:00,
2013-03-25 22:15:00,33.6,26.1,30.06,WNW,292,2.6,4.6,74,0.00,,,0.00,WUHU21623XXSP,2013-03-26 02:15:00,
2013-03-25 22:20:00,34.0,26.5,30.06,West,270,2.6,3.3,74,0.00,,,0.00,WUHU21623XXSP,2013-03-26 02:20:00,
2013-03-25 22:25:00,34.2,26.3,30.06,West,270,0.0,3.3,73,0.00,,,0.00,WUHU21623XXSP,2013-03-26 02:25:00,
2013-03-25 22:30:00,34.2,26.6,30.06,West,270,3.8,5.4,74,0.00,,,0.00,WUHU21623XXSP,2013-03-26 02:30:00,
2013-03-25 22:35:00,34.2,26.3,30.06,SSW,202,4.9,5.7,73,0.00,,,0.00,WUHU21623XXSP,2013-03-26 02:35:00,
2013-03-25 22:41:00,34.3,26.8,30.06,West,270,0.9,5.7,74,0.00,,,0.00,WUHU21623XXSP,2013-03-26 02:41:00,
2013-03-25 22:46:00,34.2,26.6,30.06,WNW,292,0.0,5.7,74,0.00,,,0.00,WUHU21623XXSP,2013-03-26 02:46:00,
2013-03-25 22:51:00,34.2,26.6,30.06,West,270,4.7,5.4,74,0.00,,,0.00,WUHU21623XXSP,2013-03-26 02:51:00,
2013-03-25 22:56:00,34.0,26.5,30.07,North,0,5.2,6.0,74,0.00,,,0.00,WUHU21623XXSP,2013-03-26 02:56:00,
2013-03-25 23:01:00,33.6,26.4,30.07,West,270,3.3,6.0,75,0.00,,,0.00,WUHU21623XXSP,2013-03-26 03:01:00,
2013-03-25 23:06:00,33.8,26.6,30.07,West,270,0.0,3.8,75,0.00,,,0.00,WUHU21623XXSP,2013-03-26 03:06:00,
2013-03-25 23:11:00,34.0,26.8,30.07,WNW,292,0.0,3.8,75,0.00,,,0.00,WUHU21623XXSP,2013-03-26 03:11:00,
2013-03-25 23:16:00,34.0,27.1,30.07,West,270,0.0,7.0,76,0.00,,,0.00,WUHU21623XXSP,2013-03-26 03:16:00,
2013-03-25 23:21:00,33.8,26.9,30.07,SSW,202,0.0,7.0,76,0.00,,,0.00,WUHU21623XXSP,2013-03-26 03:21:00,
2013-03-25 23:26:00,33.6,27.1,30.07,North,0,2.9,3.3,77,0.00,,,0.00,WUHU21623XXSP,2013-03-26 03:26:00,
2013-03-25 23:31:00,33.4,26.9,30.07,West,270,0.0,3.3,77,0.00,,,0.00,WUHU21623XXSP,2013-03-26 03:31:00,
2013-03-25 23:36:00,33.4,26.9,30.07,WNW,292,2.6,3.3,77,0.00,,,0.00,WUHU21623XXSP,2013-03-26 03:36:00,
2013-03-25 23:41:00,33.4,26.9,30.07,WNW,292,0.0,3.0,77,0.00,,,0.00,WUHU21623XXSP,2013-03-26 03:41:00,
2013-03-25 23:46:00,33.4,26.9,30.07,WNW,292,1.7,2.4,77,0.00,,,0.00,WUHU21623XXSP,2013-03-26 03:46:00,
2013-03-25 23:52:00,33.4,27.2,30.07,West,270,0.9,3.3,78,0.00,,,0.00,WUHU21623XXSP,2013-03-26 03:52:00,
2013-03-25 23:57:00,33.6,27.4,30.07,West,270,0.0,4.1,78,0.00,,,0.00,WUHU21623XXSP,2013-03-26 03:57:00,